Regional Weather Roundup
Issued by NWS

Home | Current Version | Previous Version | Text Only | Print | Product List | Glossary On
Versions: 1 2 3 4 5 6 7 8 9 10 11 12 13 14 15 16 17 18 19 20 21 22 23 24 25 26 27 28 29 30 31 32 33 34 35 36 37 38 39 40 41 42 43 44 45 46 47 48 49 50
000
ASUS43 KLSX 261107
RWRMO

WEATHER SUMMARY FOR MISSOURI
NATIONAL WEATHER SERVICE SPRINGFIELD MO
500 AM CST WED NOV 26 2014

NOTE: "FAIR" INDICATES FEW OR NO CLOUDS BELOW 12,000 FEET WITH NO
       SIGNIFICANT WEATHER AND/OR OBSTRUCTIONS TO VISIBILITY.
       CURRENT SKY AND/OR WEATHER CONDITIONS ARE NOT AVAILABLE FOR
       CHILLICOTHE AND FARMINGTON.

MOZ001>031-035>038-043-044-053-054-261200-
...NORTHERN AND WESTERN MISSOURI...

CITY           SKY/WX    TMP DP  RH WIND       PRES   REMARKS
KANSAS CTY INT FLURRIES  35  34  96 S10       29.91F WCI  27
KANSAS C DTWN  CLOUDY    35  32  88 SW6       29.94F
LEE`S SUMMIT   FLURRIES  33  31  92 SW8       29.94F WCI  26
ST JOSEPH      CLOUDY    38  34  85 SW9       29.90F
CHILLICOTHE      N/A     33  31  92 S9        29.93F WCI  25
KIRKSVILLE     CLOUDY    30  22  72 SE14      29.95F WCI  19

$$
MOZ066>068-077>081-088>096-101>105-261200-
...SOUTHWEST MISSOURI...

CITY           SKY/WX    TMP DP  RH WIND       PRES   REMARKS
SPRINGFIELD    CLOUDY    35  22  58 S14       29.96F WCI  26
JOPLIN         CLOUDY    41  24  51 S8        29.94F

$$
MOZ032>034-039>042-045>050-055>058-069>072-261200-
...CENTRAL MISSOURI...

CITY           SKY/WX    TMP DP  RH WIND       PRES   REMARKS
COLUMBIA       CLOUDY    30  21  69 SE9       30.00F WCI  22
JEFFERSON CITY CLOUDY    28  22  78 SE5       30.04R WCI  23
ROLLA          MOCLDY    31  19  61 S9        29.98F WCI  23
SEDALIA        CLOUDY    36  22  56 SE8       29.97F WCI  30
WHITEMAN AFB   LGT SNOW  35  24  65 W5        29.97S
WARRENSBURG    RAIN      34  28  80 S6        29.97F WCI  29
OSAGE BEACH    CLOUDY    32  18  55 SE6       30.01R WCI  26

$$
MOZ051-052-059>065-261200-
...EAST CENTRAL MISSOURI...

CITY           SKY/WX    TMP DP  RH WIND       PRES   REMARKS
ST LOUIS INTL  CLOUDY    31  25  78 SE10      30.08F WCI  22
SPIRIT OF STL  MOCLDY    26  23  88 E3        30.06F
ST CHARLES     CLOUDY    29  26  89 E9        30.08F WCI  20

$$
MOZ072>076-082>087-097>100-106>115-261200-
...SOUTH CENTRAL AND SOUTHEAST MISSOURI...

CITY           SKY/WX    TMP DP  RH WIND       PRES   REMARKS
CAPE GIRARDEAU PTCLDY    29  27  92 CALM      30.12F
FARMINGTON     CLOUDY    25  25 100 E5        30.08S WCI  19
POPLAR BLUFF   MOCLDY    27  23  85 CALM      30.10F
WEST PLAINS    PTCLDY    33  19  56 S8        30.03F WCI  26

$$


USA.gov is the U.S. government's official web portal to all federal, state and local government web resources and services.